Nome, AK

2:46 AM AKDT on May 28, 2017 (GMT -0800)
Nome

Weather History for PAOM - July, 2013

Change the Weather History Date:

Tuesday, July 16, 2013

  Actual Average Record
Temperature  
Mean Temperature 48 °F 53 °F  
Max Temperature 50 °F 58 °F 80 °F (1960)
Min Temperature 46 °F 47 °F 32 °F (1959)
Degree Days  
Heating Degree Days 17 13  
Month to date heating degree days 216 205  
Since 1 June heating degree days 692 721  
Since 1 July heating degree days 216 205  
Cooling Degree Days 0    
Month to date cooling degree days 0  
Year to date cooling degree days 7  
Since 1 June cooling degree days 7  
Moisture  
Dew Point 46 °F    
Average Humidity 0    
Maximum Humidity 0    
Minimum Humidity 0    
Precipitation  
Precipitation 0.06 in 0.07 in 1.36 in (1944)
Month to date precipitation 1.93 0.88  
Year to date precipitation 8.71 6.00  
Snow  
Snow 0.00 in 0.00 in 0.00 in (2016)
Month to date snowfall 0.0 0.0  
Since 1 June snowfall 0.1 0.3  
Since 1 July snowfall 0.0 0.0  
Snow Depth 0.00 in    
Sea Level Pressure  
Sea Level Pressure 30.05 in    
Wind  
Wind Speed 9 mph (South)    
Max Wind Speed 15 mph    
Max Gust Speed 18 mph    
Visibility 6 miles    
Events Rain    
T = Trace of Precipitation, MM = Missing Value Source: NWS Daily Summary

Daily Weather History Graph

Daily Weather History Graph

Search for Another Location

Airport or City:

Trip Planner

Search our weather history database for the weather conditions in past years. The results will help you decide how hot, cold, wet, or windy it might be!

Date:

Astronomy

Jul. 16, 2013 Rise Set
Actual Time 5:13 AM AKDT 12:59 AM AKDT
Civil Twilight 3:40 AM AKDT 2:35 AM AKDT
Nautical Twilight Sun does not set Sun does not set
Astronomical Twilight Sun does not set Sun does not set
Moon 5:49 PM AKDT (7/16) 1:17 AM AKDT (7/16)
Length of Visible Light 22h 55m
Length of Day
19h 45m
First Quarter, 58% of the Moon is Illuminated
Jul 16
First Quarter
Jul 22
Full
Jul 29
Last Quarter
Aug 6
New
Aug 14
First Quarter

Hourly Weather History & Observations

Time (AKDT) Temp. Windchill Dew Point Humidity Pressure Visibility Wind Dir Wind Speed Gust Speed Precip Events Conditions
12:08 AM 51.8 °F - 50.0 °F 94% 30.00 in 4.0 mi South 5.8 mph - 0.01 in   Overcast
12:21 AM 51.8 °F - 50.0 °F 94% 30.00 in 1.8 mi South 6.9 mph - 0.01 in   Overcast
12:53 AM 50.0 °F - 48.9 °F 96% 30.03 in 2.0 mi South 8.1 mph - 0.01 in Rain Light Rain
1:00 AM 50.0 °F - 48.2 °F 94% 30.02 in 2.5 mi South 9.2 mph - 0.00 in Rain Light Rain
1:19 AM 50.0 °F - 48.2 °F 94% 30.03 in 3.0 mi South 6.9 mph - 0.01 in Rain Light Rain
1:53 AM 48.9 °F - 48.0 °F 97% 30.03 in 2.5 mi South 11.5 mph - 0.02 in Rain Light Rain
2:36 AM 48.2 °F - 46.4 °F 93% 30.03 in 4.0 mi SSW 10.4 mph - 0.00 in Rain Light Rain
2:53 AM 48.0 °F - 46.9 °F 96% 30.03 in 5.0 mi SSW 10.4 mph - 0.00 in   Overcast
3:11 AM 48.2 °F - 46.4 °F 93% 30.03 in 2.5 mi SSW 10.4 mph - N/A   Overcast
3:19 AM 48.2 °F - 46.4 °F 93% 30.03 in 4.0 mi SSW 10.4 mph - N/A   Overcast
3:53 AM 48.0 °F - 46.0 °F 93% 30.03 in 10.0 mi SSW 8.1 mph - N/A   Overcast
4:53 AM 46.0 °F 41.9 °F 45.0 °F 96% 30.03 in 10.0 mi SSW 8.1 mph - N/A   Overcast
5:53 AM 46.0 °F 43.1 °F 44.1 °F 93% 30.03 in 10.0 mi SW 5.8 mph - N/A   Overcast
6:53 AM 46.0 °F 41.4 °F 44.1 °F 93% 30.04 in 10.0 mi SSW 9.2 mph - N/A   Overcast
7:53 AM 46.0 °F 41.9 °F 44.1 °F 93% 30.04 in 8.0 mi SSW 8.1 mph - N/A   Overcast
8:53 AM 46.9 °F - 44.1 °F 90% 30.04 in 10.0 mi SSW 5.8 mph - 0.00 in   Overcast
9:04 AM 46.4 °F 42.9 °F 44.6 °F 93% 30.04 in 10.0 mi SSW 6.9 mph - N/A   Overcast
9:53 AM 46.9 °F - 45.0 °F 93% 30.04 in 5.0 mi South 9.2 mph - N/A   Overcast
9:57 AM 46.4 °F 41.9 °F 44.6 °F 93% 30.05 in 2.5 mi South 9.2 mph - 0.00 in Rain Light Rain
10:23 AM 46.4 °F 41.9 °F 44.6 °F 93% 30.06 in 1.8 mi South 9.2 mph - 0.01 in Rain Light Rain
10:40 AM 46.4 °F 42.4 °F 44.6 °F 93% 30.06 in 3.0 mi South 8.1 mph - 0.01 in Rain Light Rain
10:53 AM 46.9 °F - 45.0 °F 93% 30.06 in 4.0 mi South 9.2 mph - 0.02 in Rain Light Rain
11:05 AM 46.4 °F 41.5 °F 44.6 °F 93% 30.07 in 3.0 mi South 10.4 mph - 0.00 in Rain Light Rain
11:33 AM 46.4 °F 42.4 °F 44.6 °F 93% 30.07 in 2.5 mi South 8.1 mph - 0.01 in Rain Light Rain
11:50 AM 46.4 °F 42.9 °F 46.4 °F 100% 30.07 in 3.0 mi South 6.9 mph - 0.01 in Rain Light Rain
11:53 AM 46.9 °F - 46.0 °F 97% 30.06 in 3.0 mi South 8.1 mph - 0.01 in Rain Light Rain
12:32 PM 48.2 °F - 46.4 °F 93% 30.07 in 2.5 mi South 9.2 mph - 0.01 in Rain Light Rain
12:51 PM 48.2 °F - 46.4 °F 93% 30.07 in 4.0 mi South 9.2 mph - 0.01 in   Overcast
12:53 PM 48.0 °F - 46.0 °F 93% 30.07 in 4.0 mi South 9.2 mph - 0.01 in   Overcast
1:53 PM 46.9 °F - 46.0 °F 97% 30.06 in 6.0 mi South 8.1 mph - N/A   Overcast
2:15 PM 46.4 °F 42.4 °F 46.4 °F 100% 30.06 in 4.0 mi South 8.1 mph - N/A   Overcast
2:53 PM 46.9 °F - 46.0 °F 97% 30.07 in 7.0 mi South 12.7 mph - N/A   Overcast
3:02 PM 46.4 °F 41.1 °F 46.4 °F 100% 30.07 in 2.5 mi South 11.5 mph - N/A   Overcast
3:25 PM 46.4 °F 41.1 °F 46.4 °F 100% 30.07 in 2.0 mi South 11.5 mph - 0.00 in   Overcast
3:53 PM 48.0 °F - 46.0 °F 93% 30.07 in 3.0 mi SSW 11.5 mph - 0.00 in   Overcast
4:05 PM 48.2 °F - 46.4 °F 93% 30.07 in 1.8 mi South 11.5 mph - 0.00 in Rain Light Rain
4:21 PM 48.2 °F - 46.4 °F 93% 30.08 in 2.5 mi South 11.5 mph - 0.00 in Rain Light Rain
4:28 PM 48.2 °F - 46.4 °F 93% 30.08 in 6.0 mi SSW 12.7 mph - 0.00 in   Overcast
4:53 PM 48.0 °F - 46.9 °F 96% 30.07 in 8.0 mi SSW 13.8 mph - 0.00 in   Overcast
5:38 PM 48.2 °F - 48.2 °F 100% 30.07 in 2.0 mi SSW 12.7 mph - 0.00 in Rain Light Rain
5:53 PM 48.0 °F - 46.9 °F 96% 30.07 in 2.5 mi SSW 12.7 mph - 0.00 in   Overcast
6:09 PM 48.2 °F - 46.4 °F 93% 30.07 in 1.8 mi SSW 12.7 mph - N/A   Overcast
6:32 PM 48.2 °F - 46.4 °F 93% 30.07 in 3.0 mi SSW 11.5 mph - 0.00 in Rain Light Rain
6:53 PM 48.9 °F - 46.9 °F 93% 30.07 in 5.0 mi SSW 10.4 mph - 0.00 in   Overcast
7:11 PM 48.2 °F - 46.4 °F 93% 30.08 in 8.0 mi SSW 10.4 mph - N/A   Overcast
7:53 PM 48.9 °F - 46.9 °F 93% 30.07 in 10.0 mi South 9.2 mph - N/A   Overcast
8:39 PM 48.2 °F - 46.4 °F 93% 30.07 in 10.0 mi SSW 10.4 mph - N/A   Overcast
8:53 PM 48.9 °F - 46.9 °F 93% 30.07 in 10.0 mi SSW 8.1 mph - N/A   Overcast
9:00 PM 48.2 °F - 46.4 °F 93% 30.07 in 10.0 mi South 6.9 mph - N/A   Overcast
9:10 PM 50.0 °F - 46.4 °F 87% 30.07 in 10.0 mi South 11.5 mph - N/A   Overcast
9:18 PM 48.2 °F - 46.4 °F 93% 30.06 in 10.0 mi South 11.5 mph - N/A   Overcast
9:36 PM 48.2 °F - 46.4 °F 93% 30.06 in 10.0 mi South 10.4 mph - N/A   Overcast
9:53 PM 48.9 °F - 46.0 °F 90% 30.07 in 10.0 mi South 9.2 mph - N/A   Overcast
10:53 PM 48.9 °F - 46.0 °F 90% 30.06 in 10.0 mi South 8.1 mph - N/A   Overcast
11:53 PM 48.0 °F - 45.0 °F 89% 30.06 in 10.0 mi South 6.9 mph - N/A   Overcast